Zurück zum Katalog

STARLINK-4036

AktivKommunikationVLEO
NORAD 52837·PAYLOAD·🇺🇸 United States

Gestartet Jun 17, 2022 von Cape Canaveral Space Force Station

Loading…

Nächste Überflüge (nächste 24 Stunden)

TLE

AktuellSource: CelesTrak SupGP

Epoche: Sep 14, 2026, 21:20 UTC

1 52837C 22062H   26257.88937500  .00013932  00000+0  41169-3 0  2577
2 52837  53.1577 254.2796 0001323  92.6098  78.9376 15.34378740    16

Verfolge STARLINK-4036 in Echtzeit mit AllMySat

Download on the App Store